#timestamp,LO_Frequency,Hit,StdDev 
1572235215.1,286047002.0,N
1572235216.0,286047002.0,P
1572235235.8,286047000.8,P
1572235255.6,286047001.2,N
1572235275.5,286047001.1,N
1572235295.3,286047000.3,N
1572235315.1,286047001.2,N
1572235335.9,286046999.6,N
1572235355.7,286046998.6,N
1572235375.5,286046998.5,N
1572235395.4,286046996.9,N
1572235415.2,286046997.5,N
1572235435.0,286046998.0,N
1572235435.9,286046998.0,N
1572235455.8,286046995.5,N
1572235475.6,286046995.2,N
1572235495.4,286046996.7,N
1572235515.3,286046995.3,N
1572235535.1,286046997.0,N
1572235536.0,286046997.0,N
1572235555.8,286046998.9,N
1572235575.7,286047001.2,N
1572235595.5,286046998.3,N
1572235615.3,286047000.9,N
1572235635.2,286046998.1,N
1572235655.9,286046998.4,N
1572235675.7,286046998.7,N
1572235695.6,286046998.3,N
1572235715.4,286046998.6,N
1572235735.2,286046996.9,N
1572235755.1,286047000.7,N
1572235756.0,286047000.7,N
1572235775.8,286046999.1,N
1572235795.6,286046998.9,N
1572235815.5,286046998.2,N
1572235835.3,286046998.2,N
1572235855.1,286046999.3,N
1572235875.9,286046996.5,N
1572235895.7,286046996.7,N
1572235915.5,286046996.9,N
1572235935.4,286046996.9,N
1572235955.2,286046997.1,N
1572235975.0,286046999.3,N
1572235975.9,286046999.3,N
1572235995.8,286046999.0,N
1572236015.6,286046998.8,N
1572236035.4,286046998.4,N
1572236055.3,286046998.9,N
1572236075.1,286046999.2,N
1572236076.0,286046999.2,N
1572236095.8,286046999.3,N
1572236115.7,286047001.2,N
1572236135.5,286047000.9,N
1572236155.3,286046998.1,N
1572236175.2,286047000.2,N
1572236195.9,286047000.0,N
1572236215.7,286047001.0,N
1572236235.6,286047001.0,N
1572236255.4,286046998.3,N
1572236275.2,286047002.2,N
1572236295.0,286047001.9,N
1572236296.0,286047001.9,N
1572236315.8,286047002.4,N
1572236335.6,286047002.8,N
1572236355.5,286047000.2,N
1572236375.3,286047000.3,N
1572236395.1,286047000.5,N
1572236415.9,286046999.8,N
1572236435.7,286047002.5,N
1572236455.5,286047000.0,N
1572236475.3,286047000.5,N
1572236495.2,286047001.6,N
1572236515.0,286047000.7,N
1572236515.9,286047000.7,N
1572236535.8,286047000.4,N
1572236555.6,286047000.3,N
1572236575.4,286047000.3,N
1572236595.2,286047001.1,N
1572236615.1,286047000.0,N
1572236616.0,286047000.0,N
1572236635.8,286047001.0,N
1572236655.7,286046999.9,N
1572236675.5,286047001.1,N
1572236695.3,286047000.7,N
1572236715.1,286046999.1,N
1572236735.9,286046998.9,N
1572236755.7,286047000.8,N
1572236775.5,286047000.4,N
1572236795.4,286047002.7,N
1572236815.2,286047001.1,N
1572236835.0,286046999.6,N
1572236836.0,286046999.6,N
1572236855.8,286046996.8,Y
1572236875.6,286046999.1,P
1572236895.5,286046999.1,N
1572236915.3,286046996.8,P
1572236935.1,286046999.2,N
1572236955.9,286046999.2,N
1572236975.7,286046997.1,N
1572236995.5,286046997.1,N
1572237015.4,286046999.6,N
1572237035.2,286046998.3,N
1572237055.0,286046998.2,N
1572237055.9,286046998.2,N
1572237075.8,286047000.7,N
1572237095.6,286046998.1,N
1572237115.4,286047001.1,N
1572237135.3,286047000.7,N
1572237155.1,286046998.3,N
1572237156.0,286046998.3,N
1572237175.8,286047000.8,N
1572237195.7,286047000.8,N
1572237215.5,286046999.6,N
1572237235.3,286046997.3,N
1572237255.2,286046997.7,N
1572237275.9,286046995.3,Y
1572237295.7,286046996.6,P
1572237315.6,286046998.8,N
1572237335.4,286046999.4,N
1572237355.2,286046998.8,N
1572237375.1,286046998.5,N
1572237376.0,286046998.5,N
1572237395.8,286046999.0,N
1572237415.6,286046999.6,N
1572237435.5,286046997.2,Y
1572237455.3,286046998.9,P
1572237475.1,286047000.4,P
1572237495.9,286047000.8,N
1572237515.7,286046998.6,N
1572237535.5,286047000.8,N
1572237555.4,286046998.6,N
1572237575.2,286047000.8,N
1572237595.0,286046999.7,N
1572237595.9,286046999.7,N
1572237615.8,286046999.7,N
1572237635.6,286047000.3,N
1572237655.4,286047000.5,N
1572237675.3,286046998.2,N
1572237695.1,286046998.7,N
1572237696.0,286046998.7,N
1572237715.8,286047000.3,N
1572237735.7,286046998.6,N
1572237755.5,286046998.6,N
1572237775.3,286046998.6,N
1572237795.2,286047001.0,N
1572237815.9,286046999.8,N
1572237835.7,286047002.3,N
1572237855.6,286047002.6,N
1572237875.4,286047001.6,N
1572237895.2,286047001.7,N
1572237915.1,286047004.3,Y
1572237916.0,286047004.3,P
1572237935.8,286047003.9,N
1572237955.6,286047004.1,N
1572237975.5,286047003.2,N
1572237995.3,286047003.8,N
1572238015.1,286047004.0,N
1572238035.9,286047004.2,N
1572238055.7,286047001.6,N
1572238075.5,286047002.1,N
1572238095.4,286047004.3,Y
1572238115.2,286047001.2,P
1572238135.0,286047002.5,N
1572238135.9,286047002.5,P
1572238155.8,286047002.6,Y
1572238175.6,286047000.3,P
1572238195.4,286047001.1,N
1572238215.3,286047000.0,N
1572238235.1,286047001.2,N
1572238236.0,286047001.2,N
1572238255.8,286046998.4,N
1572238275.7,286047000.4,N
1572238295.5,286047000.8,N
1572238315.3,286047000.3,N
1572238335.2,286047001.4,N
1572238355.9,286047001.7,N
1572238375.7,286047002.0,N
1572238395.6,286047000.2,N
1572238415.4,286047002.3,N
1572238435.2,286047002.8,N
1572238455.1,286047001.5,N
1572238456.0,286047001.5,N
1572238475.8,286047000.2,N
1572238495.6,286047002.6,N
1572238515.5,286047002.2,N
1572238535.3,286047002.0,N
1572238555.1,286047001.5,N
1572238575.9,286047003.4,Y
1572238595.7,286047001.5,P
1572238615.5,286047004.4,P
1572238635.4,286047004.2,N
1572238655.2,286047003.9,N
1572238675.0,286047004.3,Y
1572238675.9,286047004.3,P
1572238695.8,286046998.1,P
1572238715.6,286046998.3,N
1572238735.4,286047000.3,N
1572238755.3,286046998.6,N
1572238775.1,286047000.0,N
1572238776.0,286047000.0,N
1572238795.8,286047002.4,N
